Погода в Арике

Россия / Кабардино-Балкарская Республика     43°34′47″N   44°07′15″E
темп.,
°C
ветер,
м/с
пор.,
м/с
влажн.,
%
обл.,
%
осадки,
мм/ч
давл.,
гПа
погр.,
м
9 декабря, чт
чт900:00+6юз11795 0.0 101110
03:00+7св0171100 0.0 101110
06:00+6зсз117065 0.0 101310
09:00+8ю2259100 0.0 101518
12:00+11св005098 0.0 101599
15:00+12ююв115397 0.0 101623
18:00+10ю226071 0.0 101810
21:00+10зюз006391 0.0 102010
10 декабря, пт
пт1000:00+9всв116798 0.0 102110
03:00+8всв118298 0.0 102315
06:00+8ююв1185100 0.0 102414
09:00+7з1194100 1.8 102642
12:00+8ю2291100 0.5 1026125
15:00+9ю348182 0.5 1025241
18:00+7ю22876 0.0 102629
21:00+6ю33865 0.0 102529
11 декабря, сб
сб1100:00+5ююв22860 0.0 102417
03:00+5ю11850 0.0 102410
06:00+4юв11850 0.0 102410
09:00+5с00830 0.0 102550
12:00+8св22725 0.0 1023479
15:00+10св226666 0.0 1023707
18:00+6ссв258658 0.0 1026109
21:00+4сз118987 0.0 102618
12 декабря, вс
вс1200:00+3ссз119267 0.0 102616
03:00+2сз229599 0.0 102826
06:00+1сз229561 0.0 102945
09:00+3св109098 0.0 1029132
12:00+5всв227972 0.0 1028498
15:00+7в236828 0.0 1027713
18:00+4всв248325 0.0 102984
21:00+3в23885 0.0 102957
13 декабря, пн
пн1300:00+1всв22925 0.0 102839
03:00+1в229436 0.0 102836
06:00+2вюв2284100 0.0 102793
09:00+3вюв2377100 0.0 1026573
12:00+5в3471100 0.0 1025840
15:00+5всв137399 0.0 1024527
18:00+5сз117798 0.0 102340
21:00+5св128294 0.0 102298